Regional Weather Roundup
Issued by NWS Albany, NY

Home | Current Version | Previous Version | Text Only | Print | Product List | Glossary On
Versions: 1 2 3 4 5 6 7 8 9 10 11 12 13 14 15 16 17 18 19 20 21 22 23 24 25 26 27
000
ASUS41 KALY 272210
RWRALY

NEW YORK STATE HOURLY WEATHER ROUNDUP
NATIONAL WEATHER SERVICE ALBANY NY
600 PM EDT THU APR 27 2017

NOTE: "FAIR" INDICATES FEW OR NO CLOUDS BELOW 12,000 FEET WITH NO
SIGNIFICANT WEATHER AND/OR NO OBSTRUCTIONS TO VISIBILITY.

NYZ032-033-038>043-046>054-057>066-NYZ062>081-082-084-272300-
EAST


CITY           SKY/WX    TMP DP  RH WIND       PRES   REMARKS
ALBANY         MOSUNNY   72  57  59 S12G21    29.80S
GLENS FALLS    SUNNY     75  58  55 S8        29.76F
POUGHKEEPSIE   CLOUDY    67  57  70 SE6       29.85R
NEWBURGH       CLOUDY    66  61  82 SE12      29.85S FOG
MONTGOMERY     CLOUDY    68  58  70 SE6       29.84R
WHITE PLAINS   PTSUNNY   63  56  78 SE8       29.89R
ISLIP          CLOUDY    61  57  87 SE10      29.90S
NEW YORK CITY  CLOUDY    65  56  72 SE13      29.88R
CENTRAL PARK   CLOUDY    61  57  87 S10G18    29.91R
$$

NYZ005>009-017-018-044>046-055-056-272300-
CENTRAL


CITY           SKY/WX    TMP DP  RH WIND       PRES   REMARKS
FULTON         MOSUNNY   81  56  42 SE8G20    29.61F
SYRACUSE       CLOUDY    79  57  46 SE12G22   29.63S
ROME           SUNNY     76  60  57 SE17G24   29.70S
ELMIRA         CLOUDY    76  56  49 S9        29.68R
BINGHAMTON     MOSUNNY   73  56  54 S15G22    29.74S
MONTICELLO     MOSUNNY   64  59  82 SE13      29.86S
$$

NYZ026>034-041>043-087-272300-
NORTH


CITY           SKY/WX    TMP DP  RH WIND       PRES   REMARKS
WATERTOWN      SUNNY     84  56  38 SE12G20   29.60F
FORT DRUM      NOT AVBL
OGDENSBURG     FAIR      85  60  42 E8        29.61F
MASSENA        SUNNY     80  58  46 NE20      29.64F
SARANAC LAKE   SUNNY     77  55  46 S9        29.73S
PLATTSBURGH    SUNNY     74  56  53 SE16      29.73F
$$

NYZ001>004-010>016-019>021-085-272300-
WEST


CITY           SKY/WX    TMP DP  RH WIND       PRES   REMARKS
NIAGARA FALLS  CLOUDY    81  60  48 NE3       29.51F
BUFFALO        CLOUDY    83  57  41 S13       29.52F
DUNKIRK        LGT RAIN  62  56  80 W13       29.63R
JAMESTOWN      CLOUDY    70  52  52 S17G30    29.65R
WELLSVILLE     MOSUNNY   75  52  44 S10G26    29.69F
ROCHESTER      CLOUDY    78  54  43 S13G25    29.58R
PENN YAN       MOSUNNY   74  52  46 SW13G25   29.67R
$$

             KEY
       WCI = WIND CHILL INDEX
       VSB = VISIBILITY
       HX  = HEAT INDEX
$$




USA.gov is the U.S. government's official web portal to all federal, state and local government web resources and services.